TimeCST,TemperatureF,Dew PointF,Humidity,Sea Level PressureIn,VisibilityMPH,Wind Direction,Wind SpeedMPH,Gust SpeedMPH,PrecipitationIn,Events,Conditions,WindDirDegrees,DateUTC
12:53 AM,34.0,33.1,96,29.94,5.0,ESE,8.1,-,N/A,,Overcast,120,2012-12-09 06:53:00
1:24 AM,35.6,33.8,93,29.91,5.0,SE,8.1,-,N/A,,Overcast,130,2012-12-09 07:24:00
1:51 AM,35.6,33.8,93,29.91,5.0,SE,6.9,-,N/A,,Overcast,130,2012-12-09 07:51:00
1:53 AM,35.1,33.1,92,29.93,5.0,SE,4.6,-,N/A,,Overcast,130,2012-12-09 07:53:00
2:53 AM,35.1,34.0,96,29.94,6.0,SE,4.6,-,N/A,,Overcast,140,2012-12-09 08:53:00
3:53 AM,35.1,34.0,96,29.93,6.0,ESE,3.5,-,N/A,,Overcast,110,2012-12-09 09:53:00
4:53 AM,35.1,33.1,92,29.91,4.0,East,4.6,-,N/A,,Overcast,90,2012-12-09 10:53:00
5:21 AM,33.8,33.8,100,29.89,2.0,East,5.8,-,0.01,Snow,Light Snow,90,2012-12-09 11:21:00
5:37 AM,33.8,33.8,100,29.89,2.5,East,4.6,-,0.02,Snow,Light Snow,90,2012-12-09 11:37:00
5:53 AM,33.1,33.1,100,29.91,1.8,East,4.6,-,0.02,Snow,Light Snow,90,2012-12-09 11:53:00
6:07 AM,33.8,-9999,N/A,29.89,1.5,East,5.8,-,0.01,Snow,Light Snow,90,2012-12-09 12:07:00
6:53 AM,33.1,-9999,N/A,29.91,1.2,East,5.8,-,0.04,Snow,Light Snow,100,2012-12-09 12:53:00
7:53 AM,32.0,-9999,N/A,29.90,1.2,ESE,8.1,-,0.04,Snow,Light Snow,120,2012-12-09 13:53:00
8:53 AM,33.1,-9999,N/A,29.88,1.8,SE,6.9,-,0.02,Snow,Light Snow,130,2012-12-09 14:53:00
9:14 AM,33.8,-9999,N/A,29.87,2.0,SSE,4.6,-,0.00,,Overcast,160,2012-12-09 15:14:00
9:36 AM,33.8,-9999,N/A,29.87,3.0,SSE,4.6,-,0.00,,Overcast,150,2012-12-09 15:36:00
9:50 AM,33.8,-9999,N/A,29.87,4.0,SSE,3.5,-,0.00,,Haze,150,2012-12-09 15:50:00
9:53 AM,33.1,-9999,N/A,29.89,3.0,SSE,3.5,-,0.00,,Overcast,150,2012-12-09 15:53:00
10:04 AM,33.8,-9999,N/A,29.85,2.5,SE,4.6,-,0.00,Snow,Light Snow,130,2012-12-09 16:04:00
10:31 AM,33.8,33.8,100,29.87,3.0,South,4.6,-,0.00,,Overcast,180,2012-12-09 16:31:00
10:53 AM,34.0,34.0,100,29.88,4.0,SSE,3.5,-,0.00,,Overcast,160,2012-12-09 16:53:00
11:35 AM,33.8,33.8,100,29.85,1.8,SSW,4.6,-,N/A,,Overcast,210,2012-12-09 17:35:00
11:53 AM,34.0,34.0,100,29.86,1.5,SSW,4.6,-,N/A,,Overcast,210,2012-12-09 17:53:00
12:12 PM,33.8,33.8,100,29.82,2.0,South,4.6,-,N/A,,Overcast,180,2012-12-09 18:12:00
12:19 PM,33.8,33.8,100,29.83,1.8,South,5.8,-,N/A,,Overcast,190,2012-12-09 18:19:00
12:34 PM,35.6,35.6,100,29.82,2.0,SW,5.8,-,N/A,,Overcast,220,2012-12-09 18:34:00
12:45 PM,35.6,35.6,100,29.82,4.0,SW,9.2,-,N/A,,Overcast,230,2012-12-09 18:45:00
12:53 PM,35.1,35.1,100,29.84,4.0,WSW,13.8,-,N/A,,Overcast,240,2012-12-09 18:53:00
1:21 PM,35.6,35.6,100,29.81,4.0,West,11.5,-,N/A,,Overcast,280,2012-12-09 19:21:00
1:53 PM,33.1,33.1,100,29.83,9.0,West,18.4,25.3,N/A,,Overcast,270,2012-12-09 19:53:00
2:01 PM,33.8,30.2,87,29.82,8.0,West,16.1,25.3,N/A,,Overcast,270,2012-12-09 20:01:00
2:50 PM,30.2,24.8,80,29.84,9.0,West,20.7,25.3,N/A,,Overcast,280,2012-12-09 20:50:00
2:53 PM,30.0,25.0,82,29.86,9.0,West,18.4,25.3,N/A,,Overcast,280,2012-12-09 20:53:00
3:53 PM,27.0,21.0,78,29.89,9.0,West,21.9,-,N/A,,Overcast,280,2012-12-09 21:53:00
4:53 PM,25.0,19.0,78,29.91,10.0,West,24.2,29.9,N/A,,Overcast,280,2012-12-09 22:53:00
5:53 PM,23.0,18.0,81,29.91,10.0,West,20.7,31.1,N/A,,Overcast,280,2012-12-09 23:53:00
6:53 PM,23.0,17.1,78,29.91,10.0,WNW,20.7,31.1,N/A,,Overcast,290,2012-12-10 00:53:00
7:53 PM,23.0,17.1,78,29.93,10.0,WNW,24.2,29.9,N/A,,Overcast,300,2012-12-10 01:53:00
8:53 PM,21.0,15.1,78,29.94,10.0,WNW,25.3,41.4,N/A,,Overcast,300,2012-12-10 02:53:00
9:53 PM,19.9,14.0,78,29.95,10.0,WNW,21.9,33.4,N/A,,Overcast,300,2012-12-10 03:53:00
10:53 PM,19.0,12.9,77,29.96,10.0,WNW,16.1,28.8,N/A,,Overcast,300,2012-12-10 04:53:00
11:53 PM,18.0,12.9,81,29.97,10.0,NW,19.6,32.2,N/A,,Overcast,310,2012-12-10 05:53:00